Regional Weather Roundup
Issued by NWS

Home | Current Version | Previous Version | Text Only | Print | Product List | Glossary On
Versions: 1 2 3 4 5 6 7 8 9 10 11 12 13 14 15 16 17 18 19 20 21 22 23 24 25 26 27 28 29 30 31 32 33 34 35 36 37 38 39 40 41 42 43 44 45 46 47 48 49 50
000
ASUS46 KSEW 011410
RWRWA

WASHINGTON REGIONAL WEATHER ROUNDUP
NATIONAL WEATHER SERVICE SEATTLE WA
700 AM PDT MON SEP 01 2014

NOTE:"FAIR" INDICATES FEW OR NO CLOUDS BELOW 12,000 FEET WITH NO
SIGNIFICANT WEATHER AND/OR OBSTRUCTIONS TO VISIBILITY.

WAZ505-507>509-011500-
SEATTLE, TACOMA, EVERETT, AND VICINITY

CITY           SKY/WX    TMP DP  RH WIND       PRES   REMARKS
EVERETT        CLOUDY    58  53  84 VRB3      30.09R
BOEING FIELD   MOCLDY    58  52  80 SE8       30.08R
RENTON         CLOUDY    55  53  93 SE6       30.08R
SEATAC AIRPORT MOCLDY    57  51  80 SE7       30.09R
JBLM-MCCHORD   CLEAR     50  48  93 CALM      30.09R
PUYALLUP       NOT AVBL
JBLM-FT LEWIS  DRIZZLE   51  50  97 SE2       30.09R
TACOMA NARROWS CLOUDY    56  54  93 S5        30.09R
$$

WAZ001-503-506-510-514-515-011500-
NORTH INTERIOR

CITY           SKY/WX    TMP DP  RH WIND       PRES   REMARKS
BELLINGHAM     MOCLDY    60  52  74 S8        30.06R
FRIDAY HARBOR  CLEAR     51  50  96 CALM      30.08R FOG
EASTSOUND      CLEAR     55  54  94 S9        30.04R
PORT ANGELES   CLEAR     53  49  86 SW8       30.07R
NAS WHIDBEY    CLOUDY    58  54  86 SE6       30.08R
BURLINGTON     MOCLDY    54  54 100 CALM      30.09R
$$

WAZ020-022-039-040-504-511-512-011500-
SOUTHWEST INTERIOR

CITY           SKY/WX    TMP DP  RH WIND       PRES   REMARKS
SHELTON        PTCLDY    53  52  96 CALM      30.06S FOG
OLYMPIA        MOCLDY    52  51  97 CALM      30.09R
CHEHALIS       PTSUNNY   50  50 100 CALM      30.09S
KELSO          CLOUDY    54  48  82 CALM      30.12S
VANCOUVER      CLOUDY    57  51  80 CALM      30.09R
SCAPPOOSE, OR  CLOUDY    54  52  93 CALM      30.08S
PORTLAND, OR   MOCLDY    59  55  87 CALM      30.09R
$$

WAZ021-516-517-011500-
WASHINGTON COAST

CITY           SKY/WX    TMP DP  RH WIND       PRES   REMARKS
FORKS          CLOUDY    54  51  90 E3        30.06R
HOQUIAM        CLOUDY    59  58  96 NE5       30.07R FOG
ASTORIA, OR    CLOUDY    58  55  90 SE3       30.06S
$$

WAZ019-023-024-040-518-519-011500-
CASCADE MOUNTAINS AND COLUMBIA GORGE

CITY           SKY/WX    TMP DP  RH WIND       PRES   REMARKS
STAMPEDE PASS  NOT AVBL
TROUTDALE, OR  CLOUDY    55  52  89 E5        30.08S
THE DALLES, OR CLEAR     52  47  83 CALM      30.06R
$$

WAZ026-027-041>044-520-521-011500-
EAST SLOPES

CITY           SKY/WX    TMP DP  RH WIND       PRES   REMARKS
OMAK           CLEAR     49  38  65 NW6       30.02R
WENATCHEE      CLEAR     59  40  49 N6        30.03R
ELLENSBURG     CLEAR     55  43  63 NW9       30.04R
YAKIMA         CLEAR     46  40  79 NW5       30.05R
$$

WAZ028-034-035-011500-
COLUMBIA BASIN

CITY           SKY/WX    TMP DP  RH WIND       PRES   REMARKS
EPHRATA        CLEAR     58  38  47 CALM      30.01R
MOSES LAKE     CLEAR     56  43  61 W7        30.02R
PASCO          CLEAR     50  48  93 CALM      30.04R
HERMISTON, OR  CLEAR     48  45  89 S3        30.05R
$$

WAZ036>038-011500-
NORTHEAST WASHINGTON

CITY           SKY/WX    TMP DP  RH WIND       PRES   REMARKS
SPOKANE GEIGER PTCLDY    47  39  74 S5        30.03R
SPOKANE FELTS  CLEAR     52  41  66 N5        30.05R
FAIRCHILD AFB  CLEAR     46  39  77 SE3       30.03R
COEURDALENE,ID CLEAR     50  39  66 S7        30.04S
DEER PARK      CLEAR     46  38  73 S3        30.04R
$$

WAZ029>033-011500-
SOUTHEAST WASHINGTON

CITY           SKY/WX    TMP DP  RH WIND       PRES   REMARKS
PULLMAN        CLEAR     47  36  65 CALM      30.08R
LEWISTON, ID   CLOUDY    57  44  62 CALM      30.05R
WALLA WALLA    CLEAR     58  45  62 S8        30.06R
PENDLETON, OR  CLEAR     53  45  74 SE6       30.06R
$$



USA.gov is the U.S. government's official web portal to all federal, state and local government web resources and services.